RH
56 58 62 72 72 73 73 72 71 72 77 73 76 79 82 82 83 84 84 82 79 80 84 86 86 87 71 62 50 57 62 58 50 48 38 34 32 34 35 34 34 34 30 28 33 32 31
67 56 55 63 72 75 72 74 77 78 77 74 74 77 83 86 87 88 88 84 79 80 84 85 87 84 61 54 44 50 42 49 46 44 42 36 32 32 36 34 33 32 35 33 34 34 32
69 69 56 55 68 75 73 75 77 82 84 77 77 77 83 86 88 88 87 85 80 80 82 84 85 62 60 50 38 42 40 40 43 41 40 38 37 33 34 36 35 36 37 35 36 35 33
68 69 67 56 57 74 75 75 77 80 84 86 84 88 86 88 89 90 90 84 86 86 85 83 80 62 54 43 42 36 39 43 39 39 43 42 39 35 39 37 40 38 43 42 40 36 39
66 71 67 62 56 63 72 75 74 75 77 83 86 81 84 91 89 91 90 86 84 85 84 79 66 61 52 44 40 38 40 41 40 44 40 30 38 40 40 47 50 52 47 49 43 37 40
64 68 69 65 60 61 68 73 74 76 74 75 85 84 88 90 89 90 90 84 80 86 73 59 53 71 50 45 43 39 40 42 46 46 44 45 51 53 52 46 56 44 53 49 53 44 45
64 68 68 67 64 60 69 71 72 74 77 76 75 87 90 87 90 90 90 85 83 77 84 66 60 54 48 43 42 46 43 44 49 42 42 57 51 50 44 42 43 44 51 52 43 47 44
63 64 69 68 66 59 67 70 73 72 72 76 80 81 90 87 92 91 90 83 69 56 74 65 68 59 46 43 48 48 44 44 43 42 55 58 53 40 40 44 43 46 47 54 44 47 49
67 61 65 69 67 65 64 65 68 70 71 74 82 82 90 88 91 95 95 75 70 71 70 54 62 61 52 46 46 50 44 48 47 57 57 56 38 42 43 52 45 50 46 47 42 51 50
64 65 65 69 69 69 64 64 67 68 71 76 82 82 87 88 98 92 92 70 75 59 64 55 76 63 54 48 56 51 44 43 54 45 57 54 49 51 50 50 48 54 43 41 48 56 48
66 65 65 68 69 72 67 67 67 68 72 77 80 80 87 90 98 96 74 71 70 46 80 43 75 56 59 48 54 63 52 50 54 52 54 50 55 49 55 47 42 50 49 50 55 69 74
64 64 69 68 69 70 69 69 68 68 71 76 80 83 89 90 89 81 64 64 55 74 79 65 73 76 64 60 66 59 55 50 46 47 52 52 53 46 45 53 47 60 61 66 80 72 76
67 67 67 68 69 72 68 68 69 69 69 76 80 77 86 89 88 82 67 70 93 90 50 77 72 79 65 70 70 65 62 62 60 62 63 63 59 56 48 54 54 55 50 83 71 84 60
70 67 66 65 67 66 67 70 72 70 76 75 76 78 81 89 88 92 87 88 92 62 58 67 76 78 75 66 73 72 69 62 62 53 71 71 74 57 50 50 60 58 46 70 46 73 56
67 69 72 69 73 69 69 68 69 74 74 74 78 91 90 85 92 96 98 99 79 63 48 76 71 83 77 66 75 72 75 55 46 53 43 65 48 60 57 53 48 62 66 44 66 82 84
72 71 70 72 69 69 69 71 72 74 75 73 97 93 81 66 90 99 99 89 64 54 48 60 72 74 82 69 74 67 76 59 57 49 46 45 62 67 59 53 56 55 54 67 78 83 84
72 72 74 74 74 72 74 72 75 77 77 75 100 98 83 77 95 100 99 86 58 55 52 45 54 67 62 63 61 63 63 50 45 53 46 52 55 79 61 66 64 64 66 69 68 79 77
62 69 72 74 73 74 73 74 74 76 79 82 98 99 89 94 100 99 99 72 62 59 55 56 45 51 59 60 67 65 64 54 65 46 47 52 69 88 74 70 62 64 63 64 70 71 88
70 65 64 71 73 72 74 73 76 78 79 98 100 99 91 98 100 100 87 68 62 60 56 61 57 49 50 56 69 57 55 76 77 50 43 51 66 88 77 69 74 67 61 58 60 72 82
70 70 65 64 74 76 75 74 77 77 79 95 100 99 99 99 99 90 93 75 81 76 64 61 56 57 53 52 55 72 81 82 78 77 74 56 65 56 48 60 65 71 64 59 55 79 73
72 68 70 65 66 75 78 78 79 80 81 97 100 100 100 99 100 99 90 79 80 87 84 78 75 65 64 76 80 87 88 82 76 76 78 60 74 73 77 61 64 65 64 57 60 53 62
65 70 67 69 66 65 68 76 77 76 83 99 100 100 99 99 100 100 94 94 81 93 86 86 84 100 94 80 84 93 90 81 75 83 86 79 96 87 86 71 68 68 61 64 58 63 61
66 65 68 70 70 69 67 68 72 77 82 98 98 95 100 97 100 100 99 94 77 75 98 93 92 96 89 99 96 94 92 91 86 84 94 89 89 87 87 84 75 74 77 70 66 69 62
66 68 67 71 72 68 71 68 68 74 79 100 98 99 100 99 100 100 100 100 83 76 81 100 95 85 94 79 75 75 80 88 89 97 89 89 85 92 94 85 86 78 86 80 78 76 74
62 66 68 64 65 67 71 70 68 74 79 99 97 99 100 99 100 100 100 100 100 89 100 99 94 88 76 82 92 95 94 93 97 98 97 90 89 96 92 94 81 90 82 78 75 82 59
66 68 66 67 65 68 68 73 69 79 81 94 97 97 99 100 99 99 100 100 100 99 100 100 92 82 90 96 97 98 97 95 97 99 90 91 92 92 98 96 93 87 83 76 66 79 58
67 72 71 67 65 69 71 72 70 75 80 92 97 95 99 100 99 99 99 99 99 99 98 100 100 99 97 99 98 97 97 91 90 92 98 98 99 98 97 96 90 86 67 68 84 77 69
67 74 68 68 70 76 69 70 71 75 80 91 96 96 100 100 99 99 98 99 99 99 96 100 98 99 99 98 98 97 96 98 94 93 91 90 93 96 97 97 89 71 70 77 76 54 64
63 68 74 72 77 74 68 72 76 78 81 82 97 90 96 99 100 96 95 94 97 97 98 100 99 99 99 98 98 98 97 98 92 98 91 94 88 92 91 92 71 59 61 62 50 42 48
Wind_Speed
21 16 15 16 14 12 13 9 10 16 15 15 16 15 15 11 10 10 11 10 8 9 8 9 7 6 2 2 8 5 8 6 4 5 6 5 5 4 4 3 4 2 2 3 2 3 1
23 18 19 15 15 15 14 14 11 15 15 15 14 14 17 12 10 8 10 11 10 8 9 8 6 2 2 4 3 7 8 6 5 4 5 5 7 5 3 2 4 4 2 0 2 2 2
21 22 16 17 11 14 14 14 12 11 16 17 12 14 15 15 11 10 7 11 13 10 9 9 5 3 1 9 3 6 6 5 6 3 5 3 3 3 3 3 1 2 1 4 3 2 2
23 20 20 14 11 13 14 12 10 10 9 17 15 16 16 16 13 11 9 7 11 11 10 6 4 2 6 1 4 5 2 2 3 3 3 3 3 4 2 3 6 3 4 0 1 5 1
21 21 18 17 14 12 15 16 14 13 13 10 17 17 17 16 15 11 9 8 9 11 8 4 3 3 6 4 4 4 3 4 5 2 3 3 3 3 4 5 5 6 2 3 3 4 3
18 21 20 19 15 15 15 16 14 14 13 12 15 16 14 22 16 11 9 6 7 7 3 3 2 1 3 6 4 6 3 7 3 5 4 5 5 4 3 4 6 6 4 3 3 3 1
19 19 19 18 16 13 14 16 17 16 14 16 16 12 17 22 16 11 4 1 1 3 4 9 8 4 5 4 4 2 4 5 4 3 6 2 5 10 15 8 4 6 4 3 1 1 3
18 15 18 18 15 13 11 13 15 17 16 15 15 12 16 22 16 13 5 4 6 4 5 17 4 3 2 4 5 3 7 7 6 4 4 4 8 7 6 6 4 3 4 2 1 1 3
13 14 16 17 15 13 12 13 15 18 19 17 16 11 14 19 16 11 6 7 0 2 2 4 10 5 5 5 6 12 10 6 5 6 6 6 4 11 7 6 7 4 6 5 5 2 3
10 13 14 16 13 13 12 13 15 17 18 18 18 13 11 15 8 8 7 9 4 3 1 7 7 9 6 6 2 4 7 7 3 10 8 4 1 6 5 6 7 6 6 6 6 5 4
12 13 12 13 13 12 12 13 16 17 16 15 19 15 11 9 10 11 7 9 5 2 3 8 6 2 6 9 9 3 3 3 9 8 9 8 8 7 4 5 7 4 5 6 4 5 4
16 13 13 13 12 13 12 14 17 17 17 16 16 17 10 7 6 7 7 14 5 3 12 4 4 8 10 3 2 6 4 1 4 6 3 3 1 4 7 4 2 10 8 8 5 4 2
19 15 14 12 12 11 11 13 17 18 17 15 13 17 12 1 6 11 9 9 8 12 2 7 6 7 10 7 5 5 11 9 9 8 6 2 1 0 4 8 5 3 7 4 5 4 8
20 18 15 12 10 10 12 13 14 13 10 13 15 17 4 5 7 7 10 13 14 12 8 4 5 9 9 9 3 7 11 13 6 4 6 9 3 9 5 7 11 6 7 9 10 6 4
22 21 17 13 12 12 13 14 12 8 11 15 17 3 4 6 10 7 11 19 15 10 12 9 7 10 5 5 8 5 8 13 16 11 9 7 3 2 2 3 6 6 5 5 8 3 3
24 22 20 16 14 12 12 14 10 9 11 17 5 5 7 11 11 8 13 19 15 7 16 8 9 9 8 12 7 9 11 6 6 9 1 9 5 1 1 3 3 4 7 4 2 5 5
25 23 21 18 16 15 14 12 10 11 13 19 3 6 4 9 9 6 13 18 19 5 7 12 9 8 7 11 8 10 13 2 12 11 5 6 6 1 4 7 10 4 4 3 5 6 8
25 24 22 21 19 18 13 11 11 10 14 5 3 5 2 8 9 3 9 20 6 5 4 4 5 7 10 12 8 6 10 3 2 12 16 6 6 5 6 2 2 2 6 7 7 6 2
28 25 23 22 22 19 14 12 12 14 13 3 3 5 3 4 5 5 10 5 4 6 6 7 6 3 5 10 7 5 6 2 2 7 17 10 5 5 3 4 2 6 6 4 5 4 7
29 28 24 24 24 21 19 15 14 17 14 3 2 4 3 2 2 8 14 21 6 2 2 3 5 4 5 6 3 9 5 1 2 1 4 6 4 7 12 6 7 7 8 8 6 4 6
30 28 27 23 25 22 21 20 18 18 15 1 2 3 1 4 3 9 12 23 10 6 2 2 1 5 9 6 3 5 4 4 4 4 3 4 6 3 2 5 4 4 8 17 14 14 8
30 30 27 26 24 23 24 22 21 20 17 1 3 4 3 5 3 10 19 11 25 4 5 4 5 2 3 6 7 9 9 3 6 2 2 3 2 3 3 3 3 3 5 10 11 3 2
29 29 29 27 26 24 23 23 24 22 16 1 1 3 3 5 5 6 11 13 22 13 3 1 8 6 4 4 5 9 8 9 6 8 4 4 6 3 2 3 3 5 7 8 5 3 7
29 28 29 28 27 26 25 22 23 23 18 2 2 3 3 4 3 4 7 5 17 23 11 4 3 5 4 14 10 10 14 13 12 12 6 7 6 2 4 2 4 1 2 2 4 3 1
30 29 27 27 28 28 27 24 23 22 21 1 2 3 2 3 4 3 2 3 5 5 4 4 1 2 19 3 5 6 5 5 5 8 5 2 6 3 5 5 4 6 3 5 7 3 3
30 29 27 25 25 26 25 25 21 19 15 3 2 3 3 3 3 5 3 1 4 5 4 3 2 12 3 3 4 7 7 7 7 4 2 4 8 3 5 5 9 2 3 2 3 4 8
33 33 30 26 25 27 25 22 19 20 15 4 2 5 2 2 4 5 3 2 1 4 5 5 7 2 3 3 3 3 3 1 6 10 6 4 3 3 3 4 5 5 4 2 6 4 11
35 36 29 24 24 25 21 19 19 19 15 5 3 4 3 1 4 6 7 4 2 2 4 6 5 1 1 3 4 3 3 3 4 1 6 7 8 4 3 2 13 6 4 6 3 7 11
34 33 34 29 26 26 22 20 20 17 12 8 2 5 4 3 3 2 1 8 7 5 3 2 2 3 3 4 2 4 3 2 5 4 3 3 3 5 3 1 3 4 4 4 4 10 5
Wind_Direction
301 301 312 296 291 300 301 309 325 313 312 311 311 307 279 245 257 275 280 286 295 306 318 321 330 320 297 208 249 172 141 136 121 139 163 148 143 145 178 176 121 181 215 180 133 141 195
300 294 294 304 290 290 297 305 308 304 305 300 304 301 301 246 236 242 275 282 283 295 305 311 314 344 215 224 113 152 138 131 152 151 156 143 176 180 145 185 156 188 182 258 192 201 205
294 297 288 291 301 280 285 292 295 290 301 297 302 297 298 259 230 239 239 283 290 291 301 305 280 161 189 238 137 147 151 159 163 165 147 171 139 118 132 133 150 104 335 329 209 205 240
286 282 288 287 288 277 280 288 277 298 311 327 322 325 319 268 228 227 231 241 284 293 301 290 197 179 231 76 112 124 138 70 124 118 105 135 130 109 95 124 25 77 54 72 283 138 345
283 281 275 280 291 276 272 272 282 281 291 312 319 318 313 287 226 216 229 249 261 283 284 231 159 182 251 127 149 188 143 156 122 82 80 104 86 100 58 91 25 12 207 210 320 199 116
277 278 274 274 277 289 280 275 274 275 295 304 285 302 305 328 227 205 226 237 284 302 246 199 251 135 182 214 164 148 142 138 125 117 70 76 56 93 52 116 200 194 203 232 238 203 100
274 276 272 270 275 282 281 279 287 286 279 284 285 295 318 331 245 187 206 152 67 272 246 194 190 205 133 130 113 127 145 118 94 73 151 158 119 189 199 166 139 138 152 144 194 90 152
273 271 274 273 268 274 274 273 282 288 287 290 282 311 313 320 245 175 152 203 202 185 223 242 294 305 147 179 109 162 129 133 143 174 119 64 219 205 143 155 156 104 120 220 250 122 140
281 275 276 272 269 273 279 284 283 283 290 294 282 292 320 297 224 156 175 212 110 127 239 265 193 184 186 153 178 181 143 139 135 137 186 164 255 156 146 145 154 202 171 177 182 98 61
296 281 281 276 273 273 283 286 292 290 292 292 295 281 310 317 240 157 195 222 215 13 345 253 196 231 150 162 217 152 176 143 159 177 142 231 281 118 146 181 138 179 187 150 143 99 203
324 297 293 290 285 282 286 293 294 296 302 298 299 302 291 339 331 189 179 160 132 11 223 221 172 91 145 165 143 229 203 76 159 165 132 232 166 155 150 216 159 196 103 120 96 100 79
348 325 308 302 289 282 286 293 300 298 302 297 306 305 306 333 286 220 155 134 104 135 234 170 132 151 133 156 84 117 136 51 142 119 69 148 142 162 181 67 58 152 78 53 56 88 27
351 342 329 318 301 290 296 300 301 299 299 309 317 326 306 187 274 345 160 137 165 209 153 194 175 163 160 147 123 155 165 176 161 134 176 77 139 267 133 83 33 87 88 17 2 4 216
356 350 338 327 320 312 308 309 314 307 313 316 322 306 276 254 251 275 193 178 195 197 201 140 127 127 168 142 185 166 148 189 253 105 121 151 237 176 182 171 171 175 150 154 193 196 226
359 356 352 340 326 323 315 314 322 328 324 324 323 257 232 223 226 221 204 196 191 171 170 135 79 151 178 195 131 139 195 196 196 180 152 149 254 55 108 136 138 189 188 169 105 33 55
4 359 1 359 351 342 331 325 320 326 324 335 295 225 240 238 210 229 202 196 205 178 145 147 152 164 176 177 136 168 168 189 198 178 187 192 114 343 152 112 29 147 164 82 32 142 240
4 6 4 1 350 344 338 336 327 324 322 311 264 298 267 188 184 214 201 199 198 202 137 160 159 149 183 176 161 189 193 193 190 179 143 140 104 307 116 213 171 150 175 103 120 148 166
2 7 9 1 354 352 348 342 337 330 337 353 289 284 248 177 194 211 184 193 154 195 194 177 131 124 170 160 157 194 189 260 184 152 187 172 110 154 192 268 234 155 168 155 142 208 226
4 3 6 3 354 347 340 330 331 332 335 289 243 259 289 125 226 180 199 170 131 152 195 155 171 171 170 156 140 171 169 90 176 172 164 178 185 104 27 360 352 200 197 159 108 93 185
0 2 4 1 1 358 348 331 322 326 330 310 280 281 240 241 205 188 179 192 119 50 159 141 140 112 120 147 32 156 126 80 2 119 89 107 134 176 199 186 138 189 186 184 164 145 162
358 358 1 4 1 3 360 358 345 334 331 286 265 274 36 312 248 193 183 185 162 143 5 7 2 190 151 129 110 118 110 131 57 350 48 128 147 121 107 141 137 172 184 189 198 203 184
352 356 359 1 3 358 356 353 346 343 343 207 280 299 305 270 284 216 178 177 190 175 133 248 135 68 8 141 172 177 130 157 168 81 89 68 152 116 46 67 135 187 183 195 218 146 190
353 348 355 355 358 358 354 348 345 346 355 278 302 273 283 301 319 208 188 172 198 166 204 86 148 115 82 140 125 96 88 76 99 138 123 96 125 93 221 13 41 321 196 173 165 142 189
356 350 345 354 354 352 351 349 343 344 348 279 192 260 269 287 318 325 175 146 174 195 186 104 84 111 134 137 120 69 67 73 60 41 44 132 116 80 130 56 225 327 18 346 112 69 137
355 350 348 345 348 345 348 347 343 344 343 222 312 320 303 306 310 328 301 103 82 132 71 110 152 244 149 130 65 60 14 20 36 56 42 351 112 92 160 201 327 329 189 164 170 222 166
350 347 343 343 341 339 348 340 345 347 355 336 292 316 284 295 33 311 338 295 138 123 107 103 71 124 82 110 130 168 173 153 193 142 7 76 71 140 144 179 211 158 187 160 142 272 157
349 349 340 340 340 338 338 335 343 347 347 348 314 336 300 299 8 325 18 26 66 102 102 122 135 156 322 128 123 140 162 306 161 161 157 105 77 169 189 214 288 188 178 200 134 216 137
352 354 2 352 346 338 348 342 346 342 348 13 289 345 330 337 12 356 359 15 58 49 142 144 121 144 116 95 118 144 115 196 84 72 156 148 150 162 105 120 248 146 87 160 180 91 133
355 354 357 356 3 356 0 357 349 344 9 7 320 335 311 53 359 290 81 43 354 332 83 48 48 110 142 110 120 99 117 130 143 166 3 155 127 149 170 196 55 75 75 51 130 132 132